Time,TemperatureF,DewpointF,PressureIn,WindDirection,WindDirectionDegrees,WindSpeedMPH,WindSpeedGustMPH,Humidity,HourlyPrecipIn,Conditions,Clouds,dailyrainin,SoftwareType,DateUTC
2013-07-05 00:40:00,79.3,76.1,30.13,ESE,112,2.0,2.0,90,0.00,,,0.00,Wunderground v.1.15,2013-07-05 04:40:00,
2013-07-05 00:50:00,79.8,75.9,30.13,SSW,207,2.0,2.0,88,0.00,,,0.00,Wunderground v.1.15,2013-07-05 04:50:00,
2013-07-05 00:55:00,79.8,75.6,30.13,SSW,208,2.0,2.0,87,0.00,,,0.00,Wunderground v.1.15,2013-07-05 04:55:00,
2013-07-05 01:00:00,80.1,75.5,30.13,SW,218,2.0,2.0,86,0.00,,,0.00,Wunderground v.1.15,2013-07-05 05:00:00,
2013-07-05 01:10:00,80.4,76.2,30.13,SSW,195,1.0,1.0,87,0.00,,,0.00,Wunderground v.1.15,2013-07-05 05:10:00,
2013-07-05 01:15:00,80.5,76.6,30.12,SSW,198,1.0,4.0,88,0.00,,,0.00,Wunderground v.1.15,2013-07-05 05:15:00,
2013-07-05 01:25:00,81.0,76.4,30.12,South,191,3.0,9.0,86,0.00,,,0.00,Wunderground v.1.15,2013-07-05 05:25:00,
2013-07-05 01:35:00,81.4,76.8,30.11,South,169,4.0,6.0,86,0.00,,,0.00,Wunderground v.1.15,2013-07-05 05:35:00,
2013-07-05 01:40:00,81.4,75.7,30.11,SSW,204,4.0,5.0,83,0.00,,,0.00,Wunderground v.1.15,2013-07-05 05:40:00,
2013-07-05 01:50:00,81.8,76.5,30.11,SSW,194,4.0,4.0,84,0.00,,,0.00,Wunderground v.1.15,2013-07-05 05:50:00,
2013-07-05 02:00:00,81.7,76.0,30.11,SSE,159,4.0,4.0,83,0.00,,,0.00,Wunderground v.1.15,2013-07-05 06:00:00,
2013-07-05 02:10:00,81.8,76.5,30.11,SW,215,3.0,3.0,84,0.00,,,0.00,Wunderground v.1.15,2013-07-05 06:10:00,
2013-07-05 02:20:00,81.7,76.4,30.11,SSW,198,2.0,2.0,84,0.00,,,0.00,Wunderground v.1.15,2013-07-05 06:20:00,
2013-07-05 02:25:00,81.7,76.7,30.10,SSW,204,2.0,2.0,85,0.00,,,0.00,Wunderground v.1.15,2013-07-05 06:25:00,
2013-07-05 02:35:00,81.6,76.6,30.10,ESE,111,1.0,1.0,85,0.00,,,0.00,Wunderground v.1.15,2013-07-05 06:35:00,
2013-07-05 02:45:00,81.5,76.6,30.09,East,79,2.0,2.0,85,0.00,,,0.00,Wunderground v.1.15,2013-07-05 06:45:00,
2013-07-05 02:55:00,81.7,75.7,30.09,SSE,150,2.0,3.0,82,0.00,,,0.00,Wunderground v.1.15,2013-07-05 06:55:00,
2013-07-05 03:00:00,81.7,75.7,30.09,SW,224,2.0,2.0,82,0.00,,,0.00,Wunderground v.1.15,2013-07-05 07:00:00,
2013-07-05 03:10:00,81.8,75.8,30.09,SE,124,2.0,2.0,82,0.00,,,0.00,Wunderground v.1.15,2013-07-05 07:10:00,
2013-07-05 03:20:00,81.9,76.2,30.08,SSE,150,2.0,5.0,83,0.00,,,0.00,Wunderground v.1.15,2013-07-05 07:20:00,
2013-07-05 03:30:00,81.7,75.7,30.08,WNW,297,3.0,4.0,82,0.00,,,0.00,Wunderground v.1.15,2013-07-05 07:30:00,
2013-07-05 03:40:00,81.9,75.5,30.08,South,179,3.0,5.0,81,0.00,,,0.00,Wunderground v.1.15,2013-07-05 07:40:00,
2013-07-05 03:45:00,81.9,75.9,30.08,South,179,3.0,6.0,82,0.00,,,0.00,Wunderground v.1.15,2013-07-05 07:45:00,
2013-07-05 03:55:00,81.8,75.4,30.07,East,88,3.0,3.0,81,0.00,,,0.00,Wunderground v.1.15,2013-07-05 07:55:00,
2013-07-05 04:00:00,81.8,75.4,30.07,ESE,111,2.0,2.0,81,0.00,,,0.00,Wunderground v.1.15,2013-07-05 08:00:00,
2013-07-05 04:10:00,81.9,75.9,30.07,East,87,2.0,2.0,82,0.00,,,0.00,Wunderground v.1.15,2013-07-05 08:10:00,
2013-07-05 04:20:00,81.2,75.5,30.07,South,188,4.0,4.0,83,0.00,,,0.00,Wunderground v.1.15,2013-07-05 08:20:00,
2013-07-05 04:30:00,80.6,75.3,30.08,SSE,158,3.0,4.0,84,0.00,,,0.00,Wunderground v.1.15,2013-07-05 08:30:00,
2013-07-05 04:35:00,80.8,75.5,30.08,NE,53,3.0,4.0,84,0.00,,,0.00,Wunderground v.1.15,2013-07-05 08:35:00,
2013-07-05 04:45:00,80.7,75.8,30.07,NE,49,3.0,3.0,85,0.00,,,0.00,Wunderground v.1.15,2013-07-05 08:45:00,
2013-07-05 04:55:00,80.7,75.8,30.07,ENE,74,2.0,5.0,85,0.00,,,0.00,Wunderground v.1.15,2013-07-05 08:55:00,
2013-07-05 05:05:00,80.8,76.2,30.07,SE,133,2.0,2.0,86,0.00,,,0.00,Wunderground v.1.15,2013-07-05 09:05:00,
2013-07-05 05:14:00,80.8,76.6,30.07,ESE,112,2.0,2.0,87,0.00,,,0.00,Wunderground v.1.15,2013-07-05 09:14:00,
2013-07-05 05:20:00,80.8,76.6,30.07,NE,56,2.0,2.0,87,0.00,,,0.00,Wunderground v.1.15,2013-07-05 09:20:00,
2013-07-05 05:35:00,81.0,76.1,30.08,SSW,198,2.0,2.0,85,0.00,,,0.00,Wunderground v.1.15,2013-07-05 09:35:00,
2013-07-05 05:45:00,81.2,76.3,30.08,SSE,162,3.0,3.0,85,0.00,,,0.00,Wunderground v.1.15,2013-07-05 09:45:00,
2013-07-05 05:55:00,81.2,76.6,30.07,SW,218,2.0,3.0,86,0.00,,,0.00,Wunderground v.1.15,2013-07-05 09:55:00,
2013-07-05 06:00:00,81.2,76.6,30.08,ENE,74,2.0,2.0,86,0.00,,,0.00,Wunderground v.1.15,2013-07-05 10:00:00,
2013-07-05 06:10:00,81.0,76.1,30.08,SSW,194,2.0,6.0,85,0.00,,,0.00,Wunderground v.1.15,2013-07-05 10:10:00,
2013-07-05 06:20:00,81.3,75.3,30.08,SE,135,3.0,3.0,82,0.00,,,0.00,Wunderground v.1.15,2013-07-05 10:20:00,
2013-07-05 06:30:00,81.5,75.1,30.08,SSE,159,3.0,4.0,81,0.00,,,0.00,Wunderground v.1.15,2013-07-05 10:30:00,
2013-07-05 06:35:00,81.6,75.2,30.08,WNW,291,2.0,4.0,81,0.00,,,0.00,Wunderground v.1.15,2013-07-05 10:35:00,
2013-07-05 06:40:00,81.6,74.8,30.08,SE,146,3.0,3.0,80,0.00,,,0.00,Wunderground v.1.15,2013-07-05 10:40:00,
2013-07-05 06:50:00,81.8,75.4,30.08,East,86,2.0,3.0,81,0.00,,,0.00,Wunderground v.1.15,2013-07-05 10:50:00,
2013-07-05 07:00:00,81.9,75.1,30.08,ESE,107,3.0,3.0,80,0.00,,,0.00,Wunderground v.1.15,2013-07-05 11:00:00,
2013-07-05 07:10:00,82.1,75.3,30.09,ESE,116,4.0,4.0,80,0.00,,,0.00,Wunderground v.1.15,2013-07-05 11:10:00,
2013-07-05 07:20:00,82.2,75.8,30.09,NNE,27,3.0,4.0,81,0.00,,,0.00,Wunderground v.1.15,2013-07-05 11:20:00,
2013-07-05 07:30:00,82.2,76.2,30.10,South,191,3.0,3.0,82,0.00,,,0.00,Wunderground v.1.15,2013-07-05 11:30:00,
2013-07-05 07:40:00,82.1,76.4,30.10,ENE,69,3.0,3.0,83,0.00,,,0.00,Wunderground v.1.15,2013-07-05 11:40:00,
2013-07-05 07:45:00,82.0,76.3,30.10,East,101,2.0,3.0,83,0.00,,,0.00,Wunderground v.1.15,2013-07-05 11:45:00,
2013-07-05 08:10:00,82.2,76.9,30.10,West,262,2.0,4.0,84,0.00,,,0.00,Wunderground v.1.15,2013-07-05 12:10:00,
2013-07-05 08:20:00,83.0,77.3,30.10,SSW,205,2.0,4.0,83,0.00,,,0.00,Wunderground v.1.15,2013-07-05 12:20:00,
2013-07-05 08:30:00,83.4,77.3,30.11,SSE,156,3.0,4.0,82,0.00,,,0.00,Wunderground v.1.15,2013-07-05 12:30:00,
2013-07-05 08:45:00,82.9,76.8,30.11,ENE,76,3.0,4.0,82,0.00,,,0.00,Wunderground v.1.15,2013-07-05 12:45:00,
2013-07-05 08:55:00,82.7,77.4,30.12,SSE,150,4.0,4.0,84,0.00,,,0.00,Wunderground v.1.15,2013-07-05 12:55:00,
2013-07-05 09:00:00,81.8,76.5,30.12,ENE,75,5.0,6.0,84,0.00,,,0.00,Wunderground v.1.15,2013-07-05 13:00:00,
2013-07-05 09:15:00,81.3,76.4,30.12,East,79,4.0,4.0,85,0.75,,,0.10,Wunderground v.1.15,2013-07-05 13:15:00,
2013-07-05 09:20:00,80.5,75.2,30.11,ENE,77,5.0,5.0,84,0.10,,,0.10,Wunderground v.1.15,2013-07-05 13:20:00,
2013-07-05 09:30:00,81.4,76.8,30.11,ESE,107,4.0,4.0,86,0.14,,,0.12,Wunderground v.1.15,2013-07-05 13:30:00,
2013-07-05 09:35:00,81.8,77.2,30.12,ENE,64,3.0,5.0,86,0.06,,,0.12,Wunderground v.1.15,2013-07-05 13:35:00,
2013-07-05 10:00:00,80.0,76.1,30.12,SSW,209,2.0,2.0,88,0.00,,,0.22,Wunderground v.1.15,2013-07-05 14:00:00,
2013-07-05 10:10:00,81.6,77.4,30.12,ENE,73,2.0,4.0,87,0.00,,,0.22,Wunderground v.1.15,2013-07-05 14:10:00,
2013-07-05 10:20:00,83.4,77.3,30.12,East,91,4.0,4.0,82,0.00,,,0.22,Wunderground v.1.15,2013-07-05 14:20:00,
2013-07-05 10:30:00,84.4,77.2,30.12,SSE,159,4.0,5.0,79,0.00,,,0.22,Wunderground v.1.15,2013-07-05 14:30:00,
2013-07-05 10:40:00,84.8,77.6,30.12,WNW,287,3.0,3.0,79,0.00,,,0.22,Wunderground v.1.15,2013-07-05 14:40:00,
2013-07-05 10:50:00,81.7,76.4,30.12,ENE,69,4.0,5.0,84,1.00,,,0.35,Wunderground v.1.15,2013-07-05 14:50:00,
2013-07-05 11:00:00,79.0,74.5,30.12,SSE,151,4.0,4.0,86,0.12,,,0.44,Wunderground v.1.15,2013-07-05 15:00:00,
2013-07-05 11:10:00,80.7,76.8,30.12,West,278,3.0,3.0,88,0.07,,,0.45,Wunderground v.1.15,2013-07-05 15:10:00,
2013-07-05 11:20:00,82.4,78.1,30.13,SSE,159,3.0,3.0,87,0.04,,,0.45,Wunderground v.1.15,2013-07-05 15:20:00,
2013-07-05 11:30:00,82.2,77.9,30.13,SSW,198,3.0,4.0,87,0.00,,,0.45,Wunderground v.1.15,2013-07-05 15:30:00,
2013-07-05 11:40:00,83.1,78.1,30.13,ESE,103,3.0,3.0,85,0.00,,,0.45,Wunderground v.1.15,2013-07-05 15:40:00,
2013-07-05 11:50:00,81.8,76.1,30.13,South,184,4.0,4.0,83,0.00,,,0.45,Wunderground v.1.15,2013-07-05 15:50:00,
2013-07-05 12:00:00,79.2,74.3,30.13,SE,146,3.0,3.0,85,0.15,,,0.50,Wunderground v.1.15,2013-07-05 16:00:00,
2013-07-05 12:10:00,78.8,74.3,30.14,South,187,3.0,3.0,86,1.38,,,0.51,Wunderground v.1.15,2013-07-05 16:10:00,
2013-07-05 12:20:00,79.3,75.4,30.13,WNW,297,2.0,2.0,88,0.07,,,0.54,Wunderground v.1.15,2013-07-05 16:20:00,
2013-07-05 12:30:00,80.0,76.8,30.12,SE,125,3.0,3.0,90,0.00,,,0.54,Wunderground v.1.15,2013-07-05 16:30:00,
2013-07-05 12:40:00,80.8,77.6,30.12,SSW,198,2.0,2.0,90,0.00,,,0.55,Wunderground v.1.15,2013-07-05 16:40:00,
2013-07-05 12:45:00,81.9,78.3,30.12,ESE,119,2.0,2.0,89,0.00,,,0.55,Wunderground v.1.15,2013-07-05 16:45:00,
2013-07-05 12:55:00,83.8,78.8,30.12,SSW,207,2.0,3.0,85,0.00,,,0.55,Wunderground v.1.15,2013-07-05 16:55:00,
2013-07-05 13:00:00,84.4,78.3,30.12,SW,226,2.0,3.0,82,0.00,,,0.55,Wunderground v.1.15,2013-07-05 17:00:00,
2013-07-05 13:10:00,84.8,77.9,30.12,SSE,153,2.0,3.0,80,0.00,,,0.55,Wunderground v.1.15,2013-07-05 17:10:00,
2013-07-05 13:20:00,83.9,76.7,30.12,South,183,4.0,4.0,79,0.00,,,0.55,Wunderground v.1.15,2013-07-05 17:20:00,
2013-07-05 13:30:00,83.7,76.1,30.12,South,174,2.0,5.0,78,0.00,,,0.55,Wunderground v.1.15,2013-07-05 17:30:00,
2013-07-05 13:40:00,84.1,77.3,30.12,East,85,3.0,3.0,80,0.00,,,0.55,Wunderground v.1.15,2013-07-05 17:40:00,
2013-07-05 13:50:00,83.8,76.6,30.12,ESE,112,3.0,5.0,79,0.00,,,0.55,Wunderground v.1.15,2013-07-05 17:50:00,
2013-07-05 14:00:00,83.8,77.0,30.11,ESE,112,3.0,5.0,80,0.00,,,0.55,Wunderground v.1.15,2013-07-05 18:00:00,
2013-07-05 14:10:00,83.4,77.0,30.11,East,101,3.0,6.0,81,0.00,,,0.55,Wunderground v.1.15,2013-07-05 18:10:00,
2013-07-05 14:15:00,83.5,77.1,30.11,East,85,3.0,6.0,81,0.00,,,0.55,Wunderground v.1.15,2013-07-05 18:15:00,
2013-07-05 14:25:00,83.8,77.3,30.11,WSW,245,3.0,5.0,81,0.00,,,0.55,Wunderground v.1.15,2013-07-05 18:25:00,
2013-07-05 14:35:00,84.0,77.5,30.11,ESE,109,3.0,3.0,81,0.00,,,0.55,Wunderground v.1.15,2013-07-05 18:35:00,
2013-07-05 14:45:00,84.3,77.5,30.11,East,83,3.0,4.0,80,0.00,,,0.55,Wunderground v.1.15,2013-07-05 18:45:00,
2013-07-05 14:50:00,84.4,77.6,30.11,SE,127,3.0,3.0,80,0.00,,,0.55,Wunderground v.1.15,2013-07-05 18:50:00,
2013-07-05 15:00:00,84.3,77.8,30.10,ESE,105,3.0,3.0,81,0.00,,,0.55,Wunderground v.1.15,2013-07-05 19:00:00,
2013-07-05 15:10:00,84.4,77.9,30.10,SE,145,3.0,4.0,81,0.00,,,0.55,Wunderground v.1.15,2013-07-05 19:10:00,
2013-07-05 15:20:00,84.6,77.4,30.10,ESE,105,3.0,4.0,79,0.00,,,0.55,Wunderground v.1.15,2013-07-05 19:20:00,
2013-07-05 15:30:00,85.0,77.8,30.10,East,81,4.0,4.0,79,0.00,,,0.55,Wunderground v.1.15,2013-07-05 19:30:00,
2013-07-05 15:35:00,85.0,77.8,30.10,SSW,200,4.0,4.0,79,0.00,,,0.55,Wunderground v.1.15,2013-07-05 19:35:00,
2013-07-05 15:45:00,84.9,76.5,30.09,ENE,67,4.0,5.0,76,0.00,,,0.55,Wunderground v.1.15,2013-07-05 19:45:00,
2013-07-05 15:55:00,85.0,77.8,30.09,ENE,76,4.0,4.0,79,0.00,,,0.55,Wunderground v.1.15,2013-07-05 19:55:00,
2013-07-05 16:00:00,84.9,77.7,30.08,SW,217,4.0,4.0,79,0.00,,,0.55,Wunderground v.1.15,2013-07-05 20:00:00,
2013-07-05 16:10:00,84.5,77.3,30.08,SE,130,4.0,4.0,79,0.00,,,0.55,Wunderground v.1.15,2013-07-05 20:10:00,
2013-07-05 16:20:00,84.2,76.6,30.08,ENE,64,4.0,7.0,78,0.00,,,0.55,Wunderground v.1.15,2013-07-05 20:20:00,
2013-07-05 16:30:00,83.8,77.0,30.07,NE,53,4.0,4.0,80,0.00,,,0.55,Wunderground v.1.15,2013-07-05 20:30:00,
2013-07-05 16:35:00,83.7,76.9,30.07,East,98,4.0,4.0,80,0.00,,,0.55,Wunderground v.1.15,2013-07-05 20:35:00,
2013-07-05 16:45:00,83.7,76.9,30.07,East,94,3.0,3.0,80,0.00,,,0.55,Wunderground v.1.15,2013-07-05 20:45:00,
2013-07-05 16:55:00,83.9,77.1,30.07,West,264,4.0,4.0,80,0.00,,,0.55,Wunderground v.1.15,2013-07-05 20:55:00,
2013-07-05 17:00:00,83.9,77.1,30.07,North,1,4.0,4.0,80,0.00,,,0.55,Wunderground v.1.15,2013-07-05 21:00:00,
2013-07-05 17:10:00,84.0,77.2,30.06,SW,217,4.0,4.0,80,0.00,,,0.55,Wunderground v.1.15,2013-07-05 21:10:00,
2013-07-05 17:15:00,84.1,77.3,30.06,SSE,156,4.0,4.0,80,0.00,,,0.55,Wunderground v.1.15,2013-07-05 21:15:00,
2013-07-05 17:25:00,84.6,77.7,30.06,ENE,69,3.0,4.0,80,0.00,,,0.55,Wunderground v.1.15,2013-07-05 21:25:00,
2013-07-05 17:35:00,84.7,76.3,30.07,SE,138,4.0,6.0,76,0.00,,,0.55,Wunderground v.1.15,2013-07-05 21:35:00,
2013-07-05 17:45:00,85.5,75.9,30.06,ENE,64,4.0,4.0,73,0.00,,,0.55,Wunderground v.1.15,2013-07-05 21:45:00,
2013-07-05 17:50:00,85.7,76.5,30.06,SW,235,4.0,5.0,74,0.00,,,0.55,Wunderground v.1.15,2013-07-05 21:50:00,
2013-07-05 18:00:00,85.6,77.2,30.05,SE,136,4.0,4.0,76,0.00,,,0.55,Wunderground v.1.15,2013-07-05 22:00:00,
2013-07-05 18:10:00,85.7,77.3,30.05,ENE,73,3.0,4.0,76,0.00,,,0.55,Wunderground v.1.15,2013-07-05 22:10:00,
2013-07-05 18:20:00,85.6,77.2,30.05,ENE,58,4.0,5.0,76,0.00,,,0.55,Wunderground v.1.15,2013-07-05 22:20:00,
2013-07-05 18:30:00,85.8,77.4,30.05,East,82,4.0,4.0,76,0.00,,,0.55,Wunderground v.1.15,2013-07-05 22:30:00,
2013-07-05 18:35:00,85.6,77.2,30.06,South,187,4.0,4.0,76,0.00,,,0.55,Wunderground v.1.15,2013-07-05 22:35:00,
2013-07-05 18:45:00,84.9,76.5,30.06,SE,129,3.0,7.0,76,0.00,,,0.55,Wunderground v.1.15,2013-07-05 22:45:00,
2013-07-05 18:55:00,84.7,75.9,30.06,ESE,107,3.0,6.0,75,0.00,,,0.55,Wunderground v.1.15,2013-07-05 22:55:00,
2013-07-05 19:00:00,84.6,75.8,30.07,ENE,78,3.0,4.0,75,0.00,,,0.55,Wunderground v.1.15,2013-07-05 23:00:00,
2013-07-05 19:10:00,84.3,75.9,30.07,South,180,3.0,4.0,76,0.00,,,0.55,Wunderground v.1.15,2013-07-05 23:10:00,
2013-07-05 19:20:00,84.0,76.0,30.07,SSE,162,3.0,4.0,77,0.00,,,0.55,Wunderground v.1.15,2013-07-05 23:20:00,
2013-07-05 19:30:00,83.9,75.5,30.07,ENE,78,4.0,4.0,76,0.00,,,0.55,Wunderground v.1.15,2013-07-05 23:30:00,
2013-07-05 19:40:00,83.7,76.1,30.07,West,266,3.0,4.0,78,0.00,,,0.55,Wunderground v.1.15,2013-07-05 23:40:00,
2013-07-05 19:50:00,83.4,76.2,30.07,ENE,69,3.0,5.0,79,0.00,,,0.55,Wunderground v.1.15,2013-07-05 23:50:00,
2013-07-05 19:55:00,83.3,76.1,30.07,West,265,3.0,5.0,79,0.00,,,0.55,Wunderground v.1.15,2013-07-05 23:55:00,
2013-07-05 20:00:00,83.2,76.4,30.08,SE,135,3.0,7.0,80,0.00,,,0.55,Wunderground v.1.15,2013-07-06 00:00:00,
2013-07-05 20:10:00,83.2,75.6,30.08,SSE,160,3.0,3.0,78,0.00,,,0.55,Wunderground v.1.15,2013-07-06 00:10:00,
2013-07-05 20:20:00,83.2,76.0,30.08,East,96,3.0,3.0,79,0.00,,,0.55,Wunderground v.1.15,2013-07-06 00:20:00,
2013-07-05 20:30:00,83.0,76.2,30.08,East,89,3.0,3.0,80,0.00,,,0.55,Wunderground v.1.15,2013-07-06 00:30:00,
2013-07-05 20:40:00,82.9,75.7,30.08,North,349,3.0,4.0,79,0.00,,,0.55,Wunderground v.1.15,2013-07-06 00:40:00,
2013-07-05 20:50:00,82.8,76.0,30.08,WSW,249,3.0,3.0,80,0.00,,,0.55,Wunderground v.1.15,2013-07-06 00:50:00,
2013-07-05 21:00:00,82.8,75.2,30.09,SSW,195,3.0,3.0,78,0.00,,,0.55,Wunderground v.1.15,2013-07-06 01:00:00,
2013-07-05 21:10:00,82.8,75.2,30.09,SSE,148,3.0,4.0,78,0.00,,,0.55,Wunderground v.1.15,2013-07-06 01:10:00,
2013-07-05 21:20:00,82.8,75.2,30.09,SSW,194,3.0,3.0,78,0.00,,,0.55,Wunderground v.1.15,2013-07-06 01:20:00,
2013-07-05 21:30:00,83.0,75.8,30.09,NE,49,3.0,3.0,79,0.00,,,0.55,Wunderground v.1.15,2013-07-06 01:30:00,
2013-07-05 21:40:00,82.9,76.5,30.09,South,169,2.0,2.0,81,0.00,,,0.55,Wunderground v.1.15,2013-07-06 01:40:00,
2013-07-05 21:50:00,82.7,76.3,30.09,ENE,69,2.0,3.0,81,0.00,,,0.55,Wunderground v.1.15,2013-07-06 01:50:00,
2013-07-05 22:00:00,82.5,75.3,30.10,ENE,73,2.0,2.0,79,0.00,,,0.55,Wunderground v.1.15,2013-07-06 02:00:00,
2013-07-05 22:10:00,82.5,76.1,30.10,North,351,3.0,3.0,81,0.00,,,0.55,Wunderground v.1.15,2013-07-06 02:10:00,
2013-07-05 22:20:00,82.5,76.1,30.10,East,79,3.0,3.0,81,0.00,,,0.55,Wunderground v.1.15,2013-07-06 02:20:00,
2013-07-05 22:30:00,82.4,76.3,30.10,SE,138,2.0,2.0,82,0.00,,,0.55,Wunderground v.1.15,2013-07-06 02:30:00,
2013-07-05 22:40:00,82.3,75.9,30.10,SE,146,3.0,3.0,81,0.00,,,0.55,Wunderground v.1.15,2013-07-06 02:40:00,
2013-07-05 22:50:00,82.4,76.0,30.11,SW,221,2.0,2.0,81,0.00,,,0.55,Wunderground v.1.15,2013-07-06 02:50:00,
2013-07-05 23:00:00,82.4,76.0,30.11,ENE,67,3.0,3.0,81,0.00,,,0.55,Wunderground v.1.15,2013-07-06 03:00:00,
2013-07-05 23:10:00,82.4,76.0,30.11,South,182,2.0,2.0,81,0.00,,,0.55,Wunderground v.1.15,2013-07-06 03:10:00,
2013-07-05 23:20:00,82.5,76.1,30.11,East,94,2.0,2.0,81,0.00,,,0.55,Wunderground v.1.15,2013-07-06 03:20:00,
2013-07-05 23:25:00,82.5,75.3,30.12,East,100,3.0,3.0,79,0.00,,,0.55,Wunderground v.1.15,2013-07-06 03:25:00,
2013-07-05 23:35:00,82.6,75.8,30.12,WSW,250,3.0,3.0,80,0.00,,,0.55,Wunderground v.1.15,2013-07-06 03:35:00,
2013-07-05 23:40:00,82.6,76.2,30.12,SSW,197,2.0,4.0,81,0.00,,,0.55,Wunderground v.1.15,2013-07-06 03:40:00,
2013-07-05 23:50:00,82.5,75.7,30.12,South,191,3.0,5.0,80,0.00,,,0.55,Wunderground v.1.15,2013-07-06 03:50:00,